Vorticity
3 1 2 1 -3 2 13 7 3 5 9 11 9 12 11 7 10 11 9 9 11 15 9 4 12 12 6 10 6 5 7 4 6 8 6 3 3 4 2 6 8 6 7 7 6 6 6 5 6 7 8 6 6 6 6 7 7 7 6 7 7 7 6 7 7 8 8 7 6 5 6 6 6 6 6 6 4 5 6 6 7 8 9 9 7 4 4 4 4 4 3 3 4 5 6 6 7
4 1 1 5 3 -0 8 9 5 5 5 7 5 10 16 10 9 11 7 6 7 8 11 7 4 7 7 7 3 4 6 6 8 8 5 3 4 5 4 7 6 5 7 7 5 5 5 6 7 7 7 6 6 6 7 7 7 7 7 7 7 6 6 7 8 8 8 7 6 6 6 6 6 6 6 5 5 5 6 6 6 8 9 9 9 7 5 5 4 4 4 4 3 4 5 4 5
5 3 -0 1 5 2 4 7 8 10 3 2 4 3 8 9 6 8 7 6 7 6 7 6 5 7 5 4 3 4 6 6 6 4 3 2 3 5 7 7 6 6 7 7 5 5 5 6 8 8 7 6 5 7 7 7 7 7 8 7 6 6 7 7 8 8 7 7 7 7 7 6 7 7 6 5 5 5 6 7 5 5 7 7 8 8 7 7 6 5 5 5 5 4 4 4 3
4 6 3 -0 2 2 5 7 5 8 8 3 3 2 1 3 6 7 6 6 6 5 6 5 5 6 6 7 6 7 7 6 6 2 4 7 5 5 7 7 5 6 7 7 6 6 7 7 8 7 7 6 6 7 7 7 7 7 7 6 6 7 7 7 7 7 6 6 6 7 6 7 7 8 7 6 6 7 8 8 6 6 6 6 6 7 7 7 7 7 7 7 7 5 5 4 3
3 3 2 4 8 5 4 8 4 4 11 6 4 8 2 0 6 6 4 4 4 4 6 5 6 6 8 10 9 9 5 6 7 -0 5 9 6 6 6 6 5 6 7 6 7 7 8 8 7 7 6 7 7 8 8 7 7 7 7 7 7 7 7 7 6 5 5 5 5 6 6 6 8 7 6 5 7 8 9 10 9 9 7 6 7 8 7 7 7 7 8 8 8 7 6 6 4
2 0 1 4 4 2 4 6 4 2 8 10 8 10 5 3 3 1 5 5 3 3 4 5 7 7 7 8 8 7 2 5 5 -1 4 7 5 7 5 4 5 5 6 7 8 8 9 8 7 6 6 7 8 8 7 7 7 7 8 8 8 7 7 7 6 6 5 5 5 6 6 6 6 6 5 5 6 5 7 9 7 8 8 8 8 9 8 8 9 9 9 9 8 8 8 7 6
4 3 5 4 -1 -0 6 5 6 6 5 5 4 4 1 4 5 3 6 7 6 5 5 6 6 4 4 4 5 6 5 5 7 6 8 7 5 5 4 4 5 5 6 8 8 9 9 8 6 6 7 8 7 7 6 7 8 8 8 8 8 8 7 7 6 7 6 6 6 7 7 7 6 7 8 8 7 7 8 8 8 9 8 8 9 10 10 11 11 12 12 12 11 9 9 8 8
5 6 5 4 4 1 1 -1 4 7 4 2 3 4 4 9 11 7 6 6 7 6 5 7 6 6 5 4 5 6 7 8 11 12 10 8 4 3 4 3 4 6 7 8 8 9 10 7 6 7 7 7 6 6 7 8 9 10 9 9 8 8 8 8 8 8 8 7 8 9 10 10 9 9 10 11 10 10 10 9 10 9 7 8 10 10 10 10 11 11 11 12 13 13 12 9 8
4 7 6 5 6 1 1 4 6 7 13 15 7 2 6 13 11 6 7 5 4 5 5 7 8 9 7 6 8 6 7 12 13 10 7 8 5 2 4 3 3 6 7 8 9 9 9 7 6 7 7 6 6 7 8 10 11 11 11 11 10 10 10 9 9 9 10 10 10 10 10 11 11 10 10 11 11 11 10 10 10 9 9 10 10 10 10 10 10 9 10 12 13 14 13 12 10
4 3 3 8 15 8 4 10 8 7 17 11 -2 2 7 10 6 3 6 4 5 6 7 9 8 8 7 7 9 6 5 8 8 7 6 9 6 2 6 4 4 7 7 8 9 10 8 6 7 8 7 5 6 8 9 11 12 12 11 12 11 10 10 10 10 10 11 10 9 8 9 9 9 10 10 10 11 10 10 10 11 11 11 11 10 11 10 9 8 8 9 10 11 11 11 12 11
5 1 -1 6 12 9 0 3 5 6 11 -1 -3 9 9 8 7 4 4 4 6 6 6 7 7 7 7 6 7 6 6 7 3 4 7 8 6 4 6 5 5 8 8 8 8 9 7 6 7 8 7 5 7 9 11 12 11 11 11 10 10 9 9 10 10 9 9 7 7 7 7 8 8 9 8 9 8 8 8 8 8 8 9 9 9 11 11 10 9 8 8 8 9 8 8 10 11
4 2 4 2 -2 1 2 4 4 4 6 3 5 7 5 6 7 11 7 4 5 5 7 5 5 6 6 5 6 7 7 8 3 3 6 6 6 5 6 4 4 8 9 10 9 8 6 5 7 8 6 6 8 10 11 11 10 10 9 8 8 8 8 8 8 7 6 6 6 6 6 6 6 7 6 6 6 6 6 6 6 6 7 7 8 9 10 10 10 9 8 7 7 7 7 6 10
4 4 6 3 4 5 5 9 7 2 2 5 5 2 8 6 2 12 9 4 7 5 7 8 8 7 5 6 6 5 7 9 6 5 7 5 5 4 6 6 4 8 10 11 9 7 5 5 7 7 5 7 9 10 9 9 9 8 7 7 6 6 6 6 6 6 5 5 5 5 5 5 4 4 4 4 4 5 5 5 5 4 5 5 5 6 7 9 10 10 8 8 7 7 6 5 8
5 5 2 -2 7 6 1 10 10 7 8 6 5 5 14 11 3 7 3 3 7 4 6 9 9 9 7 6 6 4 7 10 8 7 8 5 5 4 5 6 7 8 10 11 9 6 5 5 7 7 5 8 9 9 8 7 7 6 6 5 5 5 5 5 5 5 4 4 4 4 4 4 4 4 3 4 4 4 4 4 3 3 4 4 3 3 5 7 9 10 9 9 10 10 9 8 8
4 4 2 -1 7 9 8 12 7 7 11 6 7 9 9 9 6 7 8 6 7 7 7 7 8 10 8 7 9 5 6 10 8 8 7 5 5 5 4 5 8 9 10 12 9 5 4 6 7 6 6 8 9 8 7 6 6 6 5 5 5 5 4 4 4 4 4 3 4 4 4 4 4 4 4 4 4 4 4 4 4 3 4 5 5 4 4 4 7 7 8 9 11 13 12 11 11
4 2 3 3 5 8 6 6 3 1 4 3 6 6 3 6 5 7 10 9 12 10 6 6 6 9 9 9 11 8 7 8 9 8 7 7 6 6 6 5 9 11 11 12 9 5 4 6 7 6 6 9 9 7 6 6 5 5 5 4 4 4 4 3 3 3 3 3 4 4 4 4 4 4 4 4 4 4 4 5 5 5 5 6 6 6 5 4 5 5 6 7 9 11 11 11 12
5 4 3 2 2 4 2 3 5 2 4 8 6 3 4 8 7 7 10 10 12 8 4 8 7 7 10 10 11 10 8 7 8 8 7 7 6 5 6 6 8 11 13 12 8 5 4 7 7 5 7 9 9 7 6 5 5 5 4 4 4 3 3 3 3 3 2 3 3 4 3 3 3 3 3 3 4 5 4 5 5 5 5 6 6 7 6 6 5 4 4 5 6 7 8 10 12
5 4 3 3 5 7 6 6 7 7 10 11 5 4 6 5 4 7 13 13 7 4 6 8 7 6 8 9 11 11 7 7 7 5 6 5 4 5 5 5 8 10 12 12 8 5 5 7 6 6 7 9 8 7 5 5 4 5 4 4 4 3 3 3 3 3 2 2 3 3 3 2 3 3 3 3 4 4 3 4 5 4 5 5 5 6 6 6 6 5 5 5 5 5 6 9 11
5 4 3 3 6 5 5 8 6 4 6 9 5 2 7 5 3 8 13 12 6 4 7 8 9 8 7 7 9 12 8 8 7 4 5 3 3 4 3 4 8 11 11 11 8 4 5 7 6 5 8 9 8 6 5 5 4 5 5 5 4 3 3 2 3 3 2 2 3 3 2 2 3 3 3 3 3 4 3 4 5 4 4 3 5 6 5 4 6 6 4 5 9 10 8 8 7
5 3 2 3 6 6 7 8 7 3 -4 5 8 0 7 6 2 11 13 8 3 2 4 5 9 9 9 9 9 12 10 9 8 6 6 5 5 3 2 3 7 10 12 11 8 4 5 7 7 6 8 10 7 6 4 4 5 5 5 5 5 4 3 2 2 3 2 2 3 2 2 3 3 3 3 4 4 5 5 5 5 4 3 3 4 5 5 3 5 6 2 3 10 11 7 5 5
7 2 3 7 8 7 2 0 4 6 -2 1 7 1 7 4 -1 11 8 2 3 3 6 6 6 7 8 10 11 11 9 8 8 6 8 8 7 5 5 5 7 10 12 13 9 5 5 6 6 6 8 9 7 5 4 4 4 4 5 5 5 4 3 2 3 3 2 3 3 2 3 3 4 4 4 5 5 5 5 5 5 5 4 5 5 5 6 5 5 5 2 2 3 5 6 6 6
8 2 5 8 9 5 0 6 8 3 2 3 3 1 5 5 2 10 5 2 8 6 9 8 4 7 9 10 12 12 10 7 7 7 7 7 7 7 5 4 6 9 11 13 11 5 4 6 6 6 8 9 7 5 4 4 4 4 5 5 5 4 3 2 3 4 3 3 3 4 5 5 5 6 5 5 6 5 5 5 5 6 6 6 6 6 7 7 7 5 4 5 3 4 7 7 6
7 2 3 5 9 6 -0 12 13 2 4 3 2 2 4 5 2 5 6 4 8 7 10 8 1 5 8 8 9 12 12 9 7 6 6 6 7 6 3 2 3 7 10 13 13 7 4 6 6 6 8 9 7 5 4 4 4 4 5 5 4 4 5 5 5 4 4 4 4 6 6 6 6 5 5 5 5 5 5 5 5 7 7 7 8 9 9 9 10 8 8 9 7 6 8 7 5
7 4 4 3 9 8 -1 6 9 2 2 2 3 5 4 6 2 6 11 5 4 5 7 7 1 4 8 8 9 10 11 12 10 7 6 6 5 6 4 3 5 6 10 14 15 8 3 5 6 6 8 9 7 5 4 4 3 4 3 4 4 5 6 5 5 5 5 6 5 6 6 7 6 5 5 5 6 6 6 6 7 8 9 8 9 9 9 8 8 9 8 10 10 8 8 6 6
11 8 6 5 6 6 4 5 3 -2 2 5 7 7 5 8 6 9 11 3 4 5 4 8 5 6 11 11 9 10 11 12 11 9 7 7 7 7 6 7 7 5 7 13 16 9 4 6 6 6 7 9 8 5 4 3 3 4 3 4 5 5 5 5 5 6 6 5 5 5 7 7 5 5 5 5 6 6 6 8 8 9 9 8 8 6 6 7 7 8 8 9 10 10 10 8 6
11 8 6 6 5 3 4 6 4 0 3 8 8 6 3 6 4 3 7 3 4 4 0 9 11 7 10 11 8 9 12 12 12 10 8 9 7 6 7 8 5 3 6 12 17 12 5 5 6 6 7 9 9 6 4 3 3 3 3 6 6 4 4 5 6 6 6 5 5 5 6 7 5 5 5 6 6 6 7 8 9 9 8 6 5 5 6 9 9 9 10 10 9 9 11 10 6
6 7 6 6 6 2 1 4 8 4 2 4 4 3 2 10 7 -2 5 6 1 3 2 7 9 3 4 9 8 6 10 13 13 11 9 10 8 5 6 5 4 5 6 8 14 14 6 3 6 7 7 8 9 6 4 3 3 3 4 5 4 3 3 5 7 7 7 6 6 6 6 7 6 5 5 6 6 6 7 7 8 8 7 5 4 7 9 10 9 8 10 11 11 10 11 11 9
5 8 7 6 4 0 -0 1 6 6 5 4 2 2 0 10 8 -6 3 7 0 3 3 4 7 6 3 6 9 6 9 12 12 11 9 10 9 7 4 3 4 5 4 5 10 15 10 4 6 7 6 8 9 7 5 3 4 3 4 4 3 3 3 5 7 7 7 7 7 7 7 7 7 6 6 6 6 7 7 8 9 8 7 4 5 8 7 8 9 8 8 10 10 11 11 11 11
6 7 6 7 4 2 2 1 2 1 5 6 4 3 -1 5 3 -7 7 12 4 3 -0 -0 7 11 7 7 10 8 9 10 11 13 11 10 10 9 7 7 7 5 3 5 8 14 13 6 6 8 6 8 9 7 6 4 4 4 3 4 4 4 4 5 6 6 7 7 7 7 7 7 7 6 6 6 7 7 8 9 11 10 8 5 5 6 5 6 8 8 9 9 9 10 11 12 10
6 7 7 6 3 5 6 6 6 1 3 5 5 4 3 9 4 3 16 10 1 2 -2 -2 6 11 7 6 9 7 8 10 10 14 13 12 11 10 11 11 9 7 5 6 8 12 14 8 6 8 6 7 10 8 7 5 4 4 4 4 4 4 5 4 5 6 6 6 6 7 7 7 7 6 6 6 7 7 9 12 14 12 9 7 6 5 6 8 8 9 11 10 10 9 9 11 10
2 5 9 7 5 8 10 11 9 3 3 3 3 3 4 5 3 10 13 -2 0 6 -2 1 8 11 6 0 5 6 6 9 11 14 14 13 13 11 13 13 11 9 6 5 8 11 14 10 5 8 6 6 9 8 7 5 3 4 4 4 4 4 4 4 5 5 6 6 6 7 8 7 6 7 6 6 6 8 12 15 15 12 9 7 6 7 9 9 8 9 9 10 11 10 9 10 10
0 2 7 11 9 9 12 14 11 2 -1 5 7 8 9 4 3 10 4 -3 11 11 -2 1 7 10 7 -0 5 9 6 7 10 14 15 14 14 13 13 15 13 9 5 4 7 11 14 11 6 8 6 5 8 8 7 5 3 4 3 4 4 4 4 4 5 5 6 6 5 7 7 6 6 7 5 5 7 10 14 14 11 8 5 5 8 10 11 9 7 6 4 5 8 10 11 10 9
3 2 5 10 11 9 6 8 21 14 -1 2 7 7 4 -2 3 10 10 9 11 4 -4 -4 -0 6 7 4 7 8 5 7 10 12 13 13 14 13 12 15 15 10 5 4 6 10 13 11 7 8 7 5 7 7 7 6 4 3 2 4 4 4 4 4 4 5 5 6 6 7 7 6 7 6 4 5 8 11 13 9 6 5 4 6 9 10 10 8 5 4 3 4 5 7 10 11 8
6 6 5 7 8 9 1 -0 21 23 6 3 6 8 3 -2 1 3 8 7 -3 -2 0 -1 3 8 8 8 7 4 4 7 9 11 11 11 13 13 12 14 16 14 9 5 6 9 11 11 7 8 7 5 6 7 6 6 5 4 2 3 4 4 3 4 4 4 6 6 6 7 6 6 7 5 3 5 8 10 10 6 4 4 4 7 8 8 8 7 5 3 3 5 5 5 6 8 8
8 7 6 6 6 8 5 2 9 11 10 10 7 7 6 4 4 1 3 2 1 6 2 3 10 11 12 13 9 4 4 7 9 10 11 11 12 13 13 13 15 17 13 7 8 9 11 10 7 9 8 4 5 7 7 7 6 5 4 4 4 4 3 3 5 4 6 6 6 7 6 6 7 4 2 5 8 9 8 6 4 3 5 7 7 6 6 6 6 5 6 6 6 6 5 4 7
5 7 7 6 6 8 8 8 7 4 8 12 12 12 6 2 4 4 1 2 11 10 -1 3 7 2 4 9 9 7 5 6 7 6 10 13 14 13 13 14 14 16 17 12 9 9 11 11 7 8 8 5 5 7 8 8 8 6 5 5 4 4 4 4 5 5 6 6 6 6 6 6 7 3 2 4 7 9 8 6 4 3 5 6 5 5 6 8 9 9 9 9 6 6 7 6 8
2 4 7 7 6 8 8 9 8 6 5 9 19 21 8 -1 0 1 2 10 15 4 -4 1 -0 -3 -1 2 8 10 6 4 4 5 9 12 15 16 13 13 13 15 18 16 10 8 12 11 6 7 8 6 4 5 7 7 8 7 5 5 4 4 5 4 5 6 6 7 6 6 6 7 6 3 2 3 6 9 9 6 4 4 5 6 4 3 7 11 12 10 9 9 7 7 9 11 11
4 2 4 6 5 8 11 10 9 6 6 7 9 9 2 -0 4 3 3 10 3 -8 -2 -0 -4 -0 -0 -0 5 8 8 4 4 8 9 9 12 15 15 14 13 13 15 16 11 8 13 13 6 6 9 7 5 3 4 5 5 5 4 5 4 4 5 4 5 6 6 7 6 6 5 6 6 3 2 3 5 8 9 7 4 3 5 5 3 2 8 13 10 8 9 8 8 10 12 12 10
8 4 4 4 5 9 8 4 5 10 13 10 3 -0 -2 -4 3 7 4 4 -7 -12 2 0 -2 3 -2 -1 4 6 10 8 8 10 9 10 9 10 16 16 15 13 14 15 11 8 14 15 6 6 9 7 6 3 3 4 5 5 5 6 5 4 6 5 5 6 6 7 5 6 5 6 7 3 2 4 4 7 9 8 5 4 6 5 2 2 8 12 9 7 8 8 8 9 11 10 7
9 7 6 4 5 8 9 5 1 5 11 9 1 3 4 -6 -4 6 4 4 3 2 8 4 4 2 -5 2 7 8 11 7 8 9 7 8 6 7 12 16 17 15 14 13 8 6 13 16 8 5 8 7 6 4 2 4 6 8 7 7 7 7 7 6 6 5 6 6 6 6 5 6 7 3 3 4 4 7 9 9 6 4 5 4 3 3 6 10 9 7 6 7 8 9 11 10 8
11 10 8 7 5 3 14 20 8 1 3 2 -4 -1 9 3 -3 0 -6 -3 10 13 16 17 12 1 -2 11 11 6 8 6 6 8 7 4 4 9 13 15 20 19 15 10 6 6 11 16 10 4 7 8 6 4 3 4 6 9 8 8 9 8 7 6 6 6 6 7 6 5 5 7 7 3 3 4 4 6 7 9 8 5 5 4 3 3 5 8 8 7 6 6 9 12 13 11 9
11 12 11 9 6 1 11 24 15 2 -3 -2 -3 -5 5 5 -3 -3 -8 -2 13 13 10 12 9 2 5 15 6 -4 5 10 9 8 7 5 5 10 14 15 18 20 16 8 6 6 10 15 9 5 7 7 6 5 5 5 7 8 7 6 7 6 6 6 7 7 7 9 8 5 5 7 7 4 4 5 5 7 7 8 9 7 6 4 3 4 4 7 7 6 5 6 9 12 14 13 11
11 16 17 12 7 2 7 20 15 -2 -7 1 3 -0 7 7 -2 -3 -5 -1 8 9 9 5 4 8 10 9 -1 -5 4 10 9 9 7 6 6 7 13 16 15 19 17 9 6 6 11 16 8 4 8 7 6 6 7 7 6 7 6 5 5 4 6 7 7 8 8 9 7 4 6 8 6 4 6 6 6 7 7 7 8 8 7 5 4 4 5 6 7 6 5 6 9 10 12 14 11
8 14 20 16 11 3 4 17 15 -0 -0 9 3 -3 8 10 2 0 -0 -0 1 6 12 8 8 16 11 2 0 0 2 4 7 11 8 4 5 5 8 13 16 21 20 11 7 5 10 18 11 4 7 9 8 6 8 8 6 6 6 5 7 6 7 9 10 10 8 7 4 4 7 7 5 5 6 7 8 8 7 7 8 8 8 6 4 4 6 6 6 6 5 5 8 9 10 13 11
5 9 18 19 14 6 3 12 17 10 5 9 3 -5 1 6 4 5 4 2 -2 -1 3 2 2 8 5 2 7 3 -2 3 7 8 8 5 5 7 8 11 14 21 26 16 7 5 9 16 13 5 6 10 9 8 8 8 6 6 6 6 7 7 9 10 10 9 7 6 5 6 8 7 5 7 8 8 9 8 7 6 6 7 8 6 5 4 5 7 7 5 5 4 6 8 9 10 11
6 6 13 19 18 11 6 7 15 15 3 1 4 -1 -2 1 2 4 3 4 6 2 1 2 -1 3 12 12 9 2 -2 7 11 7 10 9 5 8 10 10 10 15 24 19 8 6 8 13 14 7 6 10 10 9 9 7 7 7 6 7 7 8 10 10 8 6 5 5 6 7 8 7 7 8 8 9 8 7 8 8 7 7 7 7 6 5 5 7 8 7 5 4 4 6 8 9 10
9 8 8 17 20 14 8 8 14 12 -1 -5 -2 -2 2 2 1 1 -5 -5 5 3 -1 5 3 8 25 24 14 14 12 12 12 5 7 9 5 6 8 9 11 12 17 17 11 8 8 11 14 8 6 10 11 11 10 8 7 7 7 8 8 10 10 9 8 5 4 5 7 9 8 7 8 8 7 7 8 8 10 11 10 8 8 7 6 5 5 6 8 9 7 4 3 4 6 8 10
9 9 7 13 20 17 9 7 11 5 -4 -4 -3 -1 2 -4 -4 5 -1 -9 0 5 2 2 -0 4 24 30 19 14 12 10 11 7 6 7 3 5 7 8 10 11 13 15 12 10 10 11 12 9 7 10 12 12 11 10 8 7 7 7 8 11 11 9 7 4 5 7 9 10 8 7 7 7 6 5 7 8 9 10 11 11 11 11 9 6 5 4 6 9 9 7 4 3 4 6 7
8 9 6 8 17 19 9 1 4 2 -4 -1 3 1 -5 -15 -11 7 11 1 -2 2 3 4 4 1 10 24 18 4 2 7 11 11 6 2 2 6 10 10 10 11 13 14 12 10 11 12 11 9 8 11 13 13 12 11 8 7 7 7 8 11 11 9 6 5 6 8 10 9 6 6 7 7 4 4 5 5 5 6 6 8 9 10 12 11 9 7 6 7 8 9 7 4 3 4 6
5 7 4 2 5 9 8 2 -2 -1 1 6 7 -2 -12 -16 -12 7 19 11 1 -0 2 8 11 1 -3 11 17 8 4 4 3 2 -1 0 6 9 9 9 11 13 13 13 12 10 9 12 11 8 9 12 12 12 12 10 8 8 7 8 9 10 11 9 5 5 7 7 8 8 6 6 8 7 3 3 4 3 2 2 2 3 3 4 6 8 9 9 9 9 8 8 9 8 5 4 5
5 6 5 5 4 4 13 14 2 2 12 18 10 -10 -13 -6 -4 12 23 10 6 7 4 7 8 -0 -5 3 15 13 3 -0 1 2 3 7 9 7 6 7 10 15 16 12 12 12 10 12 11 7 10 12 10 10 10 8 7 7 7 7 8 10 10 8 4 5 9 8 6 7 8 7 7 7 3 1 2 1 -0 0 1 0 0 0 0 2 5 6 8 10 10 10 9 9 8 6 5
6 5 5 6 7 7 15 20 13 12 13 16 8 -13 -5 9 -0 10 18 1 1 5 -3 1 5 2 -4 -4 13 18 2 -1 5 4 4 7 8 6 6 7 8 15 18 12 10 11 11 13 10 6 10 10 8 9 8 7 7 7 7 7 8 9 9 7 5 6 9 9 6 8 9 8 7 6 2 2 3 3 1 1 1 1 0 -0 -1 -1 1 2 3 5 8 11 12 11 9 8 7
5 6 4 4 8 10 12 14 17 19 9 10 10 -6 4 17 4 11 14 -6 -2 0 -11 -5 1 3 3 -5 4 12 3 -1 -3 -4 2 7 10 10 9 9 9 13 16 12 9 9 11 14 9 6 10 9 7 8 6 6 7 6 6 8 9 9 8 7 5 5 9 10 6 7 9 8 7 4 2 2 3 4 3 2 2 2 2 1 0 -1 -1 -0 1 1 3 6 10 13 12 10 10
5 6 4 5 9 9 10 8 11 16 10 11 14 3 6 12 6 20 18 -2 3 2 -8 -1 -2 -3 5 2 4 11 9 7 -0 -3 5 8 10 10 9 11 9 10 12 10 10 11 11 13 8 5 10 11 7 7 7 6 6 6 6 8 10 9 7 6 6 7 11 11 7 5 7 7 6 5 4 2 2 3 3 3 3 2 2 3 2 1 0 -0 -0 -0 0 2 4 8 12 12 11
6 7 4 5 6 3 6 6 6 10 10 9 14 13 15 12 10 24 24 12 17 9 -6 1 3 0 2 2 8 14 12 13 12 7 6 7 7 4 7 12 10 11 14 11 11 12 11 12 9 5 10 12 8 7 8 8 6 7 7 8 9 8 6 5 6 10 12 10 7 5 4 4 4 4 4 2 1 1 2 3 3 3 3 3 3 3 2 2 2 1 -0 0 0 2 6 12 13
6 5 4 5 7 6 6 5 2 6 9 6 8 14 19 18 14 21 22 21 28 23 10 12 19 20 12 4 11 17 17 18 15 7 5 8 4 -3 5 14 10 11 17 15 12 10 10 12 10 7 9 11 12 11 11 12 10 10 9 9 10 8 6 6 7 10 11 9 7 5 4 4 4 3 1 1 1 1 1 2 3 4 4 4 4 5 4 4 3 3 1 1 1 -0 1 6 12
5 3 3 3 5 7 6 6 3 2 5 6 8 11 11 9 6 9 18 23 26 25 20 18 22 26 21 16 19 20 20 22 15 6 5 3 -3 -2 9 15 10 9 14 14 13 10 9 10 10 10 11 12 13 13 13 14 14 13 10 10 11 9 7 6 7 8 9 9 7 5 5 4 3 2 1 2 2 3 3 3 4 5 5 5 6 7 8 7 6 5 4 3 2 1 0 1 6
5 5 7 3 2 4 4 6 5 2 3 5 8 10 7 7 7 6 13 22 22 16 13 10 11 16 18 21 24 17 15 20 15 7 2 -3 -2 8 15 12 9 11 10 8 11 13 10 9 9 10 13 14 13 12 12 13 14 15 13 10 8 8 7 6 6 6 6 6 6 5 5 3 2 2 3 3 4 4 5 5 5 6 7 8 8 8 8 9 8 8 7 7 5 3 2 0 2
Height
5907 5907 5906 5906 5905 5905 5904 5903 5904 5904 5903 5903 5902 5902 5902 5902 5902 5902 5901 5901 5901 5901 5903 5903 5904 5905 5905 5905 5905 5906 5906 5907 5908 5909 5910 5910 5910 5910 5911 5912 5912 5912 5912 5912 5912 5911 5911 5910 5910 5910 5910 5910 5910 5910 5910 5910 5910 5911 5911 5911 5911 5910 5910 5910 5911 5911 5911 5911 5911 5911 5911 5912 5912 5912 5912 5912 5912 5912 5912 5912 5913 5913 5913 5912 5912 5912 5913 5913 5913 5913 5914 5914 5914 5915 5915 5915 5915
5908 5907 5907 5906 5906 5905 5904 5904 5905 5905 5905 5904 5903 5903 5903 5903 5903 5903 5903 5903 5903 5903 5904 5904 5905 5905 5906 5906 5906 5907 5907 5908 5909 5909 5910 5910 5911 5911 5911 5912 5913 5912 5912 5912 5912 5912 5911 5911 5911 5911 5911 5911 5911 5911 5911 5911 5911 5912 5912 5912 5911 5911 5911 5911 5912 5912 5912 5912 5912 5912 5912 5912 5913 5913 5913 5913 5913 5913 5913 5913 5913 5913 5913 5913 5913 5913 5913 5913 5913 5914 5914 5914 5914 5915 5915 5915 5915
5908 5907 5907 5907 5906 5905 5905 5905 5906 5906 5906 5905 5904 5903 5904 5904 5904 5905 5905 5904 5904 5904 5905 5905 5906 5906 5906 5906 5906 5907 5907 5907 5909 5910 5910 5911 5911 5913 5913 5913 5913 5913 5912 5912 5912 5912 5912 5912 5912 5912 5911 5911 5912 5912 5912 5912 5912 5912 5912 5912 5912 5912 5912 5912 5912 5912 5913 5913 5913 5913 5913 5913 5914 5914 5914 5914 5914 5915 5915 5914 5914 5914 5913 5913 5913 5913 5913 5913 5913 5913 5914 5914 5914 5914 5914 5915 5915
5908 5907 5907 5907 5907 5906 5906 5906 5906 5906 5906 5906 5905 5904 5904 5903 5904 5905 5905 5905 5904 5904 5905 5906 5906 5907 5907 5907 5907 5907 5908 5908 5909 5910 5910 5911 5911 5913 5914 5914 5914 5913 5913 5913 5913 5912 5912 5912 5912 5912 5912 5912 5912 5913 5913 5913 5913 5913 5913 5913 5913 5913 5913 5913 5913 5913 5914 5914 5914 5914 5914 5915 5915 5915 5915 5915 5915 5916 5915 5915 5915 5914 5914 5914 5913 5913 5913 5913 5913 5913 5914 5914 5914 5914 5914 5914 5915
5908 5908 5908 5907 5907 5906 5907 5907 5907 5907 5907 5906 5906 5906 5905 5904 5904 5905 5905 5905 5905 5905 5906 5906 5907 5907 5907 5908 5908 5908 5908 5908 5909 5911 5910 5911 5912 5913 5914 5914 5914 5914 5913 5913 5913 5913 5913 5913 5913 5913 5913 5913 5913 5914 5914 5914 5914 5914 5914 5914 5914 5914 5914 5914 5914 5914 5915 5915 5915 5915 5915 5916 5916 5916 5916 5916 5916 5917 5916 5916 5916 5915 5915 5914 5914 5914 5914 5914 5914 5914 5914 5914 5914 5914 5914 5914 5914
5909 5908 5908 5908 5907 5907 5907 5908 5907 5907 5907 5907 5907 5907 5907 5906 5906 5905 5906 5906 5906 5906 5907 5907 5907 5908 5908 5908 5909 5909 5909 5908 5909 5911 5911 5911 5913 5913 5914 5915 5915 5914 5914 5914 5913 5913 5913 5913 5914 5914 5914 5914 5914 5914 5914 5914 5914 5914 5914 5914 5915 5915 5914 5915 5915 5915 5916 5916 5916 5916 5916 5917 5917 5917 5917 5917 5917 5918 5918 5917 5917 5917 5916 5916 5915 5915 5915 5914 5914 5914 5914 5914 5913 5913 5913 5914 5914
5908 5908 5908 5908 5908 5907 5908 5908 5908 5907 5906 5907 5907 5908 5908 5907 5907 5907 5906 5906 5906 5907 5907 5908 5908 5908 5909 5909 5910 5910 5910 5908 5908 5911 5911 5911 5913 5914 5914 5915 5915 5915 5914 5914 5914 5914 5914 5914 5914 5914 5914 5915 5915 5915 5915 5915 5915 5915 5915 5915 5915 5915 5915 5916 5916 5916 5917 5917 5917 5917 5918 5918 5918 5918 5918 5919 5919 5919 5919 5919 5918 5918 5917 5917 5916 5916 5916 5915 5915 5915 5914 5914 5913 5913 5913 5913 5914
5908 5908 5908 5908 5907 5907 5907 5908 5908 5907 5907 5906 5907 5907 5908 5908 5909 5908 5907 5907 5907 5907 5908 5909 5910 5910 5909 5910 5910 5910 5910 5910 5909 5910 5911 5911 5913 5915 5915 5915 5915 5915 5915 5914 5914 5914 5915 5915 5915 5915 5915 5915 5916 5916 5915 5915 5915 5915 5915 5916 5916 5916 5916 5916 5917 5917 5918 5918 5918 5918 5919 5919 5919 5919 5920 5920 5920 5920 5920 5920 5920 5919 5919 5918 5918 5917 5917 5916 5915 5915 5914 5914 5913 5913 5913 5913 5913
5908 5908 5908 5908 5907 5907 5907 5907 5908 5908 5907 5907 5907 5907 5907 5908 5909 5909 5908 5907 5907 5908 5909 5910 5910 5910 5910 5910 5911 5911 5911 5911 5910 5911 5912 5911 5913 5915 5915 5915 5915 5915 5915 5915 5915 5915 5915 5915 5916 5916 5916 5916 5916 5916 5916 5916 5916 5916 5916 5917 5917 5917 5917 5918 5918 5918 5919 5919 5919 5920 5920 5920 5921 5921 5921 5921 5921 5921 5921 5921 5921 5920 5920 5919 5919 5918 5917 5917 5916 5915 5914 5914 5913 5913 5913 5913 5913
5907 5907 5908 5908 5907 5906 5907 5907 5907 5908 5907 5907 5907 5907 5907 5908 5908 5909 5909 5907 5907 5908 5909 5910 5910 5910 5910 5910 5911 5912 5912 5912 5912 5913 5913 5912 5914 5915 5915 5916 5916 5915 5915 5915 5915 5916 5916 5916 5916 5917 5917 5917 5917 5917 5916 5917 5917 5917 5917 5918 5918 5918 5918 5919 5919 5920 5920 5920 5920 5921 5921 5921 5922 5922 5922 5922 5922 5922 5922 5922 5922 5921 5921 5920 5919 5919 5918 5917 5916 5915 5915 5914 5914 5914 5913 5913 5913
5907 5907 5907 5907 5906 5906 5906 5907 5907 5907 5907 5907 5907 5907 5907 5907 5907 5908 5908 5906 5907 5908 5908 5909 5910 5910 5910 5911 5912 5912 5913 5913 5913 5913 5913 5913 5914 5915 5916 5916 5916 5916 5915 5916 5916 5916 5916 5917 5917 5917 5917 5917 5917 5917 5917 5918 5918 5918 5918 5919 5919 5919 5920 5920 5921 5921 5921 5921 5922 5922 5922 5923 5923 5923 5923 5923 5923 5924 5923 5923 5923 5923 5922 5921 5920 5919 5919 5918 5917 5916 5916 5915 5915 5915 5914 5914 5914
5907 5907 5907 5907 5906 5906 5906 5907 5906 5906 5906 5907 5907 5907 5908 5908 5907 5909 5909 5907 5907 5908 5909 5910 5910 5911 5911 5911 5912 5912 5913 5913 5913 5913 5913 5914 5915 5915 5916 5916 5916 5916 5916 5916 5916 5916 5917 5917 5918 5918 5918 5918 5918 5918 5919 5919 5919 5919 5920 5920 5920 5921 5921 5922 5922 5923 5923 5923 5923 5923 5923 5924 5924 5924 5924 5924 5925 5925 5925 5925 5925 5924 5923 5922 5921 5920 5920 5919 5918 5917 5917 5917 5917 5916 5916 5915 5915
5906 5906 5906 5907 5906 5906 5906 5906 5906 5906 5905 5906 5907 5908 5908 5909 5910 5911 5911 5907 5907 5908 5909 5910 5910 5911 5911 5911 5912 5913 5914 5914 5914 5914 5914 5914 5915 5915 5916 5916 5916 5916 5916 5916 5916 5917 5918 5918 5918 5918 5919 5919 5919 5919 5920 5920 5920 5920 5921 5922 5922 5922 5923 5923 5924 5924 5924 5925 5925 5925 5925 5925 5925 5924 5925 5925 5925 5925 5925 5925 5925 5924 5923 5922 5921 5921 5920 5920 5919 5919 5919 5919 5919 5918 5917 5917 5916
5905 5905 5905 5906 5906 5905 5905 5906 5906 5906 5906 5905 5906 5907 5908 5909 5911 5912 5910 5904 5905 5908 5908 5909 5910 5911 5911 5911 5912 5913 5914 5914 5915 5915 5914 5915 5915 5916 5916 5917 5916 5916 5916 5916 5917 5917 5918 5918 5918 5919 5919 5919 5919 5920 5921 5921 5921 5922 5923 5923 5923 5924 5924 5924 5925 5925 5926 5927 5927 5927 5926 5926 5926 5925 5926 5926 5926 5926 5926 5925 5925 5924 5923 5923 5922 5922 5922 5921 5921 5921 5920 5920 5920 5920 5919 5918 5918
5905 5905 5905 5906 5906 5905 5905 5905 5906 5906 5906 5905 5905 5905 5906 5907 5908 5909 5907 5903 5904 5906 5907 5909 5909 5910 5911 5911 5912 5913 5914 5915 5915 5916 5915 5915 5916 5917 5917 5917 5917 5917 5917 5917 5917 5918 5918 5919 5919 5919 5919 5920 5920 5921 5922 5922 5923 5923 5924 5924 5925 5925 5925 5926 5926 5927 5928 5928 5928 5928 5928 5928 5927 5927 5927 5927 5928 5928 5927 5927 5927 5926 5926 5926 5925 5925 5925 5924 5923 5922 5922 5922 5921 5921 5920 5919 5919
5904 5905 5905 5906 5905 5904 5904 5904 5905 5906 5906 5906 5905 5905 5906 5906 5906 5907 5906 5904 5905 5906 5907 5908 5909 5910 5910 5911 5912 5913 5913 5915 5916 5916 5916 5916 5917 5917 5918 5918 5917 5917 5917 5917 5918 5918 5919 5919 5919 5920 5920 5920 5921 5922 5923 5923 5924 5925 5925 5926 5926 5926 5926 5927 5927 5928 5929 5929 5930 5930 5930 5929 5929 5929 5929 5930 5930 5930 5930 5930 5929 5929 5929 5928 5928 5927 5927 5926 5925 5924 5923 5923 5922 5922 5921 5920 5919
5904 5904 5905 5906 5905 5904 5904 5903 5903 5905 5906 5906 5906 5906 5907 5906 5906 5907 5906 5905 5906 5907 5907 5908 5909 5910 5911 5911 5912 5913 5913 5915 5916 5916 5917 5917 5917 5918 5918 5918 5918 5918 5918 5918 5918 5919 5919 5919 5920 5920 5920 5921 5922 5923 5924 5924 5925 5926 5926 5927 5927 5927 5927 5928 5928 5929 5930 5930 5931 5931 5931 5931 5931 5931 5931 5931 5932 5932 5931 5931 5930 5930 5930 5929 5929 5928 5928 5927 5927 5925 5924 5923 5923 5923 5922 5921 5920
5903 5904 5904 5905 5905 5904 5903 5902 5902 5903 5904 5905 5906 5907 5907 5907 5907 5908 5907 5906 5906 5906 5908 5909 5909 5910 5911 5912 5912 5913 5913 5914 5916 5916 5917 5917 5917 5918 5918 5919 5918 5919 5919 5919 5919 5919 5920 5920 5920 5920 5921 5921 5922 5924 5924 5925 5926 5926 5927 5927 5928 5928 5928 5928 5929 5930 5931 5931 5932 5932 5932 5932 5932 5932 5932 5932 5932 5932 5932 5931 5931 5930 5930 5930 5930 5929 5929 5928 5928 5927 5925 5924 5924 5924 5923 5923 5923
5903 5903 5904 5904 5904 5904 5903 5902 5902 5901 5902 5903 5905 5907 5908 5908 5908 5908 5907 5906 5906 5907 5908 5909 5910 5910 5911 5912 5912 5912 5913 5914 5915 5916 5917 5917 5917 5918 5918 5919 5919 5919 5919 5919 5920 5920 5920 5920 5921 5921 5921 5922 5923 5924 5925 5926 5927 5927 5928 5928 5929 5929 5929 5929 5930 5931 5932 5932 5932 5933 5933 5933 5933 5933 5933 5933 5933 5932 5932 5932 5931 5931 5931 5931 5931 5930 5930 5929 5929 5928 5927 5926 5925 5924 5924 5924 5924
5902 5903 5903 5904 5904 5903 5902 5901 5901 5901 5901 5902 5904 5906 5908 5908 5908 5908 5908 5906 5906 5907 5909 5910 5910 5910 5911 5911 5912 5912 5913 5914 5915 5916 5917 5917 5917 5918 5918 5919 5919 5919 5920 5920 5920 5920 5921 5921 5921 5922 5922 5923 5924 5925 5926 5926 5927 5928 5929 5929 5930 5930 5930 5930 5931 5932 5932 5933 5933 5933 5933 5933 5933 5933 5933 5933 5933 5933 5932 5932 5932 5931 5931 5931 5931 5931 5931 5930 5929 5929 5928 5927 5926 5925 5925 5925 5925
5901 5901 5902 5903 5903 5903 5902 5901 5901 5901 5901 5901 5903 5905 5907 5908 5907 5906 5907 5907 5907 5907 5909 5910 5910 5910 5911 5911 5912 5912 5913 5914 5915 5916 5917 5917 5917 5918 5918 5919 5919 5920 5920 5920 5920 5921 5921 5922 5922 5923 5923 5924 5924 5925 5926 5927 5928 5929 5930 5930 5930 5931 5931 5931 5932 5933 5933 5933 5934 5934 5934 5934 5934 5934 5934 5934 5933 5933 5933 5933 5932 5932 5932 5932 5932 5932 5932 5931 5930 5930 5929 5928 5927 5926 5925 5925 5925
5900 5900 5901 5902 5902 5902 5902 5901 5901 5902 5901 5901 5902 5905 5906 5906 5906 5905 5906 5908 5907 5907 5908 5909 5910 5910 5910 5911 5912 5912 5912 5913 5914 5915 5916 5917 5918 5918 5918 5919 5920 5920 5920 5920 5921 5921 5921 5922 5923 5923 5924 5924 5925 5926 5927 5928 5929 5930 5930 5931 5931 5931 5932 5932 5933 5933 5934 5934 5934 5935 5935 5935 5935 5935 5935 5934 5934 5934 5933 5933 5933 5933 5933 5932 5932 5933 5933 5932 5931 5930 5930 5929 5928 5928 5927 5926 5926
5899 5899 5900 5901 5901 5901 5902 5901 5901 5901 5901 5901 5902 5904 5904 5904 5905 5906 5907 5907 5907 5907 5908 5909 5909 5910 5910 5911 5911 5912 5912 5913 5914 5915 5916 5916 5917 5918 5918 5919 5920 5920 5920 5921 5921 5921 5922 5922 5923 5924 5924 5925 5926 5927 5928 5929 5929 5930 5931 5932 5932 5932 5932 5933 5934 5934 5935 5935 5935 5935 5935 5936 5936 5935 5935 5935 5935 5935 5934 5934 5933 5933 5933 5933 5933 5933 5933 5933 5932 5931 5931 5931 5930 5929 5929 5928 5927
5897 5898 5899 5900 5900 5900 5901 5901 5900 5901 5902 5901 5901 5903 5904 5905 5906 5906 5907 5907 5907 5908 5909 5909 5909 5910 5910 5911 5911 5911 5912 5912 5913 5914 5915 5916 5916 5917 5918 5919 5920 5920 5921 5921 5922 5922 5922 5922 5923 5924 5925 5925 5926 5927 5928 5929 5930 5931 5931 5932 5933 5933 5933 5934 5934 5935 5935 5936 5936 5936 5936 5937 5936 5936 5936 5936 5936 5936 5935 5935 5934 5934 5933 5933 5934 5934 5934 5934 5933 5933 5932 5932 5931 5931 5930 5930 5929
5896 5897 5897 5898 5898 5899 5900 5901 5901 5901 5901 5901 5901 5903 5903 5905 5906 5906 5906 5906 5907 5908 5909 5910 5910 5910 5910 5911 5911 5911 5911 5912 5913 5914 5915 5915 5916 5917 5918 5919 5920 5920 5921 5921 5922 5922 5922 5923 5923 5924 5925 5926 5926 5927 5928 5930 5931 5931 5932 5933 5933 5933 5934 5935 5935 5936 5936 5936 5937 5937 5937 5937 5938 5938 5938 5937 5938 5937 5937 5936 5935 5935 5934 5934 5934 5935 5935 5935 5935 5934 5933 5933 5933 5932 5932 5931 5930
5894 5895 5895 5896 5896 5897 5898 5899 5900 5900 5901 5901 5901 5902 5902 5904 5905 5905 5905 5906 5907 5908 5909 5909 5910 5909 5910 5910 5910 5911 5911 5912 5912 5913 5914 5915 5916 5917 5918 5918 5919 5920 5920 5921 5922 5922 5923 5923 5923 5924 5925 5926 5927 5928 5929 5930 5931 5932 5932 5933 5934 5934 5935 5935 5936 5936 5937 5937 5938 5938 5938 5938 5939 5939 5938 5938 5938 5938 5938 5937 5937 5936 5935 5935 5935 5936 5936 5936 5936 5935 5935 5934 5933 5933 5933 5932 5931
5891 5891 5892 5893 5894 5894 5895 5897 5899 5899 5900 5900 5900 5900 5900 5902 5905 5905 5906 5906 5907 5908 5908 5909 5909 5909 5910 5910 5910 5911 5911 5911 5912 5912 5913 5915 5916 5916 5917 5918 5919 5919 5920 5921 5922 5922 5923 5923 5924 5924 5925 5926 5927 5928 5929 5930 5932 5932 5933 5933 5934 5935 5935 5936 5937 5937 5938 5938 5938 5939 5939 5939 5940 5940 5939 5939 5939 5939 5938 5938 5937 5937 5936 5935 5935 5936 5936 5937 5937 5936 5935 5935 5934 5933 5933 5933 5932
5888 5889 5890 5891 5891 5891 5893 5895 5897 5897 5898 5899 5899 5899 5899 5901 5904 5906 5907 5906 5906 5907 5908 5909 5909 5910 5910 5910 5910 5910 5911 5911 5911 5912 5913 5914 5915 5915 5916 5917 5918 5919 5919 5920 5921 5922 5923 5923 5924 5925 5925 5926 5927 5928 5929 5931 5932 5932 5933 5933 5934 5935 5936 5937 5937 5938 5939 5939 5939 5940 5940 5940 5940 5940 5940 5940 5940 5940 5939 5939 5938 5937 5937 5937 5936 5936 5936 5937 5937 5937 5936 5935 5935 5934 5934 5933 5933
5886 5887 5888 5889 5889 5889 5891 5892 5894 5896 5896 5897 5898 5897 5897 5899 5903 5905 5906 5905 5905 5906 5907 5908 5909 5910 5910 5910 5910 5910 5910 5911 5911 5911 5912 5913 5913 5914 5915 5916 5917 5918 5919 5920 5920 5922 5923 5923 5924 5925 5926 5926 5927 5929 5930 5931 5932 5933 5933 5934 5934 5935 5936 5937 5938 5939 5939 5940 5940 5941 5941 5941 5941 5941 5941 5941 5941 5941 5940 5939 5939 5938 5938 5938 5937 5937 5937 5937 5937 5937 5936 5936 5935 5935 5935 5934 5933
5883 5884 5886 5887 5888 5889 5890 5890 5892 5894 5895 5896 5896 5896 5895 5896 5900 5905 5904 5903 5904 5905 5906 5907 5908 5909 5910 5910 5909 5909 5910 5910 5910 5910 5911 5911 5912 5913 5914 5915 5916 5917 5918 5919 5920 5921 5923 5923 5924 5925 5926 5927 5927 5929 5930 5931 5932 5933 5933 5934 5935 5936 5937 5938 5938 5939 5940 5940 5941 5941 5941 5941 5942 5942 5942 5942 5942 5942 5941 5940 5940 5939 5939 5939 5938 5938 5937 5937 5937 5937 5937 5936 5936 5936 5936 5935 5934
5880 5881 5883 5884 5886 5888 5889 5889 5890 5892 5893 5894 5895 5895 5894 5893 5897 5903 5903 5902 5904 5905 5906 5907 5908 5909 5910 5910 5909 5909 5909 5909 5909 5910 5910 5910 5911 5912 5913 5914 5915 5916 5917 5918 5919 5921 5922 5923 5924 5925 5926 5927 5928 5929 5930 5931 5932 5933 5933 5934 5935 5936 5937 5938 5939 5940 5940 5941 5941 5942 5942 5942 5943 5943 5943 5943 5943 5942 5942 5941 5941 5941 5940 5940 5940 5939 5939 5938 5938 5938 5937 5937 5936 5936 5936 5935 5934
5876 5878 5880 5883 5885 5887 5887 5888 5889 5890 5891 5893 5894 5895 5894 5892 5895 5900 5902 5902 5904 5905 5906 5906 5907 5908 5909 5910 5909 5909 5908 5908 5908 5909 5910 5910 5910 5910 5911 5913 5914 5915 5916 5917 5919 5920 5922 5923 5924 5925 5926 5927 5927 5928 5930 5931 5932 5933 5934 5934 5935 5936 5937 5938 5939 5940 5941 5942 5942 5942 5943 5943 5943 5943 5943 5943 5943 5943 5942 5942 5942 5941 5941 5941 5941 5941 5940 5940 5939 5939 5938 5937 5937 5937 5936 5935 5935
5874 5877 5880 5882 5884 5885 5886 5887 5887 5888 5889 5890 5893 5895 5894 5891 5894 5899 5901 5903 5904 5905 5906 5906 5906 5907 5908 5909 5909 5909 5908 5908 5908 5908 5909 5909 5910 5909 5910 5911 5913 5914 5915 5917 5918 5919 5920 5922 5923 5925 5926 5927 5927 5928 5929 5931 5932 5933 5934 5934 5935 5936 5938 5939 5939 5940 5941 5942 5942 5943 5944 5944 5944 5944 5944 5944 5944 5943 5943 5943 5942 5942 5941 5941 5941 5941 5941 5941 5940 5940 5939 5938 5938 5938 5938 5938 5937
5874 5876 5879 5880 5882 5883 5884 5885 5886 5887 5887 5888 5891 5894 5893 5890 5892 5896 5900 5902 5904 5905 5906 5906 5906 5907 5908 5908 5908 5908 5908 5908 5908 5908 5908 5909 5909 5909 5909 5910 5911 5913 5914 5915 5917 5918 5919 5921 5922 5924 5926 5927 5927 5928 5929 5930 5932 5933 5934 5935 5936 5937 5938 5939 5940 5941 5941 5942 5943 5944 5944 5944 5944 5944 5944 5944 5944 5944 5944 5943 5943 5942 5942 5942 5942 5942 5942 5941 5941 5940 5940 5940 5940 5939 5940 5940 5939
5873 5875 5877 5878 5880 5881 5882 5884 5885 5886 5887 5888 5890 5891 5891 5889 5890 5893 5897 5900 5903 5905 5906 5906 5906 5907 5908 5908 5908 5908 5907 5908 5907 5907 5908 5908 5908 5909 5909 5909 5910 5912 5913 5914 5916 5917 5918 5920 5921 5923 5925 5926 5927 5928 5929 5930 5932 5933 5934 5935 5936 5937 5938 5939 5939 5940 5941 5942 5943 5944 5944 5944 5944 5944 5944 5944 5944 5944 5944 5944 5944 5943 5942 5942 5942 5942 5942 5942 5941 5941 5941 5940 5940 5940 5941 5941 5941
5870 5872 5874 5876 5878 5880 5881 5882 5883 5884 5885 5887 5889 5890 5888 5887 5889 5891 5895 5899 5901 5903 5904 5905 5906 5907 5907 5907 5907 5907 5907 5907 5907 5907 5907 5908 5908 5908 5909 5908 5909 5910 5912 5914 5915 5916 5917 5919 5921 5923 5924 5926 5927 5928 5929 5930 5932 5933 5934 5935 5936 5937 5937 5938 5939 5940 5941 5942 5943 5943 5944 5944 5945 5945 5944 5945 5945 5945 5945 5945 5944 5944 5944 5944 5943 5943 5943 5942 5942 5942 5942 5941 5941 5941 5940 5940 5941
5867 5869 5871 5873 5875 5878 5879 5880 5882 5883 5884 5885 5888 5889 5886 5885 5888 5890 5894 5898 5900 5901 5903 5905 5906 5907 5906 5906 5906 5906 5907 5907 5906 5906 5906 5907 5908 5908 5908 5908 5908 5910 5911 5913 5915 5916 5917 5918 5920 5922 5923 5925 5926 5927 5928 5929 5931 5932 5934 5934 5936 5937 5937 5938 5939 5940 5941 5942 5942 5943 5944 5944 5945 5945 5945 5945 5945 5946 5946 5946 5945 5945 5945 5945 5944 5944 5943 5943 5942 5942 5942 5941 5941 5941 5941 5940 5940
5864 5866 5869 5870 5872 5875 5877 5879 5881 5882 5883 5884 5886 5887 5885 5884 5886 5888 5892 5896 5898 5900 5902 5904 5905 5906 5906 5906 5905 5906 5906 5906 5906 5906 5905 5906 5907 5907 5907 5907 5908 5909 5910 5912 5914 5915 5916 5917 5919 5921 5922 5924 5925 5926 5927 5928 5929 5931 5932 5934 5935 5937 5937 5938 5939 5940 5941 5942 5942 5943 5944 5944 5945 5945 5946 5946 5946 5946 5946 5946 5946 5946 5946 5945 5945 5944 5944 5943 5943 5943 5942 5942 5941 5941 5941 5941 5941
5860 5863 5865 5867 5870 5874 5875 5876 5878 5880 5882 5883 5883 5885 5884 5882 5884 5887 5890 5894 5897 5899 5901 5902 5904 5905 5905 5905 5904 5904 5905 5906 5906 5906 5905 5906 5906 5906 5907 5907 5908 5908 5909 5911 5913 5915 5916 5917 5919 5920 5922 5923 5924 5925 5926 5927 5928 5930 5932 5934 5935 5937 5937 5938 5939 5940 5941 5941 5942 5943 5944 5944 5945 5946 5946 5946 5947 5947 5947 5947 5947 5947 5946 5946 5945 5945 5944 5944 5943 5943 5943 5942 5942 5942 5941 5941 5941
5855 5858 5860 5864 5869 5872 5873 5874 5875 5877 5880 5883 5883 5884 5883 5880 5881 5883 5886 5891 5894 5896 5898 5900 5901 5903 5904 5904 5904 5904 5904 5905 5905 5905 5905 5906 5906 5906 5907 5907 5908 5908 5909 5910 5912 5914 5916 5917 5919 5920 5921 5922 5923 5924 5925 5926 5928 5930 5932 5934 5935 5937 5938 5938 5939 5939 5940 5941 5942 5943 5944 5944 5945 5946 5946 5946 5947 5947 5947 5947 5947 5947 5947 5947 5946 5946 5945 5945 5944 5944 5943 5942 5942 5942 5942 5942 5941
5852 5855 5858 5863 5868 5871 5873 5873 5873 5874 5876 5879 5881 5883 5882 5878 5877 5878 5882 5886 5890 5892 5894 5896 5899 5900 5901 5902 5903 5903 5903 5903 5904 5905 5905 5905 5906 5906 5906 5907 5907 5908 5909 5910 5912 5913 5915 5917 5919 5920 5920 5921 5922 5923 5925 5926 5928 5929 5931 5933 5935 5936 5937 5938 5938 5939 5940 5941 5942 5943 5944 5944 5945 5946 5946 5947 5947 5947 5947 5947 5947 5948 5948 5947 5947 5947 5946 5946 5945 5944 5944 5944 5943 5943 5943 5943 5942
5849 5852 5856 5862 5866 5869 5871 5871 5870 5870 5871 5874 5878 5879 5880 5878 5875 5876 5879 5883 5886 5889 5891 5893 5896 5897 5899 5900 5901 5902 5901 5902 5903 5904 5904 5904 5905 5906 5906 5906 5907 5908 5909 5910 5911 5913 5914 5916 5918 5919 5920 5920 5921 5923 5924 5926 5927 5929 5931 5932 5934 5935 5936 5937 5938 5939 5940 5941 5942 5943 5944 5944 5945 5946 5947 5947 5947 5948 5948 5948 5948 5948 5948 5948 5948 5948 5947 5946 5946 5945 5945 5945 5944 5944 5944 5943 5943
5846 5851 5856 5860 5862 5865 5867 5868 5866 5866 5869 5872 5874 5875 5878 5878 5875 5875 5878 5880 5883 5886 5888 5890 5892 5894 5896 5898 5899 5900 5900 5901 5901 5902 5903 5904 5904 5905 5905 5906 5907 5907 5908 5909 5911 5912 5914 5915 5917 5919 5920 5921 5922 5923 5924 5926 5927 5928 5929 5931 5932 5933 5935 5936 5938 5939 5940 5941 5942 5943 5943 5944 5945 5946 5947 5947 5948 5948 5948 5948 5948 5948 5948 5948 5948 5948 5948 5947 5946 5946 5946 5945 5945 5945 5944 5944 5944
5845 5851 5854 5855 5858 5860 5864 5865 5863 5864 5868 5868 5868 5872 5876 5876 5875 5876 5877 5877 5879 5882 5885 5887 5889 5891 5893 5896 5897 5898 5898 5899 5900 5901 5902 5903 5903 5904 5904 5905 5906 5907 5908 5909 5910 5912 5913 5915 5916 5918 5919 5921 5922 5923 5924 5925 5926 5927 5928 5930 5932 5933 5935 5937 5938 5939 5940 5941 5942 5943 5944 5944 5946 5946 5947 5947 5948 5948 5948 5948 5949 5949 5949 5949 5949 5948 5948 5948 5947 5947 5947 5946 5946 5945 5945 5945 5945
5844 5849 5849 5851 5854 5856 5861 5863 5862 5864 5865 5862 5863 5867 5870 5872 5875 5876 5876 5875 5876 5879 5882 5884 5886 5889 5891 5893 5895 5896 5896 5897 5898 5899 5900 5901 5902 5902 5903 5904 5905 5906 5908 5909 5909 5911 5912 5914 5915 5917 5918 5920 5921 5922 5924 5925 5926 5927 5928 5930 5931 5933 5935 5937 5938 5939 5940 5941 5942 5943 5944 5945 5946 5947 5947 5948 5948 5948 5949 5949 5949 5949 5949 5949 5949 5949 5949 5949 5948 5948 5947 5947 5946 5946 5946 5946 5946
5842 5845 5845 5847 5850 5852 5857 5858 5860 5862 5859 5857 5860 5862 5864 5868 5872 5874 5873 5871 5873 5877 5881 5881 5884 5887 5889 5891 5893 5893 5894 5895 5896 5898 5899 5900 5901 5901 5902 5903 5904 5905 5906 5908 5909 5910 5911 5913 5914 5916 5918 5919 5921 5922 5923 5924 5926 5927 5928 5929 5931 5933 5935 5936 5937 5938 5939 5941 5942 5943 5944 5945 5946 5947 5947 5948 5948 5948 5949 5949 5949 5949 5949 5949 5949 5949 5949 5949 5949 5948 5948 5948 5947 5947 5947 5947 5947
5837 5839 5840 5842 5844 5848 5851 5853 5858 5857 5851 5853 5860 5860 5860 5862 5866 5869 5868 5868 5871 5876 5879 5879 5882 5884 5886 5889 5890 5891 5892 5893 5895 5896 5897 5898 5899 5900 5901 5902 5902 5903 5904 5906 5908 5909 5910 5912 5913 5915 5917 5918 5920 5921 5923 5924 5925 5927 5928 5929 5931 5933 5934 5936 5937 5938 5939 5940 5942 5943 5944 5945 5946 5947 5947 5948 5948 5949 5949 5949 5949 5949 5950 5950 5950 5950 5950 5950 5950 5949 5949 5949 5948 5948 5948 5948 5948
5831 5833 5835 5837 5839 5842 5844 5847 5850 5846 5843 5852 5859 5859 5857 5855 5859 5864 5865 5867 5870 5873 5876 5878 5880 5883 5884 5886 5887 5888 5890 5891 5893 5894 5895 5897 5897 5899 5899 5900 5901 5902 5903 5904 5906 5908 5909 5911 5912 5914 5916 5917 5919 5921 5922 5923 5925 5926 5928 5929 5931 5932 5934 5935 5936 5937 5939 5940 5941 5943 5944 5945 5946 5947 5947 5948 5948 5949 5949 5949 5950 5950 5950 5950 5951 5950 5950 5950 5950 5950 5950 5950 5949 5949 5949 5949 5949
5824 5826 5828 5830 5833 5836 5836 5838 5839 5836 5840 5852 5858 5857 5853 5851 5856 5861 5863 5866 5868 5869 5874 5876 5878 5881 5882 5884 5885 5886 5887 5889 5891 5892 5893 5894 5896 5897 5898 5898 5899 5900 5901 5902 5903 5906 5908 5910 5911 5913 5915 5916 5918 5920 5921 5923 5924 5925 5927 5929 5930 5932 5933 5934 5936 5937 5938 5940 5941 5942 5943 5945 5946 5947 5947 5948 5949 5949 5949 5950 5950 5950 5950 5951 5951 5951 5951 5951 5951 5951 5950 5950 5950 5950 5950 5950 5950
5818 5821 5823 5825 5827 5830 5831 5833 5834 5835 5841 5850 5855 5854 5849 5848 5854 5859 5860 5863 5865 5867 5871 5874 5876 5878 5880 5881 5883 5884 5885 5886 5888 5889 5891 5892 5894 5896 5896 5897 5898 5899 5900 5901 5902 5904 5906 5909 5910 5912 5913 5915 5917 5919 5920 5922 5923 5924 5926 5928 5930 5931 5932 5934 5935 5937 5938 5939 5941 5942 5943 5944 5945 5946 5947 5948 5949 5949 5950 5950 5950 5951 5951 5951 5951 5952 5951 5951 5951 5951 5951 5951 5950 5950 5950 5950 5950
5817 5820 5823 5824 5827 5829 5831 5833 5834 5836 5841 5847 5851 5848 5844 5846 5852 5856 5859 5861 5863 5864 5867 5871 5873 5875 5877 5879 5880 5882 5883 5884 5886 5887 5889 5890 5892 5894 5895 5896 5897 5898 5898 5899 5901 5903 5905 5907 5909 5911 5912 5913 5915 5917 5919 5921 5922 5923 5925 5927 5929 5930 5931 5933 5934 5936 5937 5939 5940 5941 5942 5944 5945 5946 5947 5948 5949 5949 5950 5950 5951 5951 5951 5951 5951 5952 5952 5951 5951 5951 5951 5951 5951 5950 5950 5950 5949
5815 5819 5819 5820 5824 5828 5830 5832 5834 5837 5839 5843 5845 5841 5841 5847 5850 5854 5858 5859 5861 5862 5863 5866 5868 5871 5874 5875 5878 5880 5881 5882 5883 5885 5887 5888 5890 5891 5893 5894 5895 5896 5897 5897 5899 5902 5904 5906 5907 5909 5911 5912 5914 5916 5918 5919 5921 5922 5924 5926 5928 5929 5930 5932 5934 5936 5937 5938 5939 5941 5942 5943 5944 5946 5947 5948 5949 5949 5950 5950 5951 5951 5951 5951 5951 5951 5952 5951 5951 5951 5951 5951 5951 5950 5950 5950 5949
5810 5812 5814 5818 5823 5825 5827 5830 5833 5835 5835 5836 5839 5839 5842 5846 5847 5851 5855 5857 5858 5859 5860 5862 5865 5867 5870 5872 5875 5878 5879 5880 5882 5883 5885 5887 5888 5889 5891 5893 5894 5895 5896 5896 5898 5900 5902 5904 5906 5908 5910 5911 5912 5914 5916 5918 5919 5921 5923 5925 5927 5928 5929 5931 5933 5935 5936 5938 5939 5940 5941 5943 5944 5945 5946 5947 5948 5949 5950 5950 5951 5951 5951 5951 5951 5951 5951 5951 5951 5951 5951 5951 5950 5950 5950 5950 5949
5805 5808 5813 5818 5821 5821 5823 5826 5827 5829 5829 5831 5834 5838 5841 5842 5844 5848 5852 5854 5855 5855 5857 5860 5862 5864 5866 5869 5873 5876 5877 5879 5880 5882 5884 5885 5886 5887 5889 5891 5892 5893 5894 5895 5896 5898 5900 5902 5904 5907 5909 5911 5912 5914 5916 5917 5918 5920 5922 5924 5925 5927 5928 5930 5932 5933 5935 5937 5938 5939 5941 5942 5943 5944 5946 5947 5948 5949 5949 5950 5950 5951 5951 5951 5951 5950 5950 5950 5950 5950 5950 5950 5950 5950 5949 5949 5949
5801 5807 5811 5813 5814 5815 5817 5819 5821 5823 5825 5827 5831 5835 5837 5838 5841 5847 5850 5851 5853 5853 5854 5856 5858 5861 5864 5866 5870 5873 5875 5876 5877 5879 5881 5883 5884 5886 5887 5889 5890 5891 5892 5893 5895 5896 5899 5901 5903 5906 5908 5910 5911 5913 5915 5917 5918 5919 5921 5922 5924 5925 5927 5929 5930 5932 5934 5936 5937 5939 5940 5941 5943 5944 5945 5946 5947 5948 5949 5949 5950 5950 5950 5951 5950 5950 5950 5949 5949 5949 5950 5949 5949 5949 5949 5948 5948
5797 5801 5804 5806 5809 5812 5814 5816 5819 5820 5822 5824 5828 5831 5833 5836 5841 5845 5847 5849 5851 5851 5851 5853 5856 5858 5861 5864 5867 5869 5872 5873 5874 5877 5879 5881 5882 5884 5886 5887 5888 5890 5891 5893 5894 5896 5898 5900 5903 5905 5907 5908 5910 5912 5915 5917 5919 5919 5920 5922 5923 5925 5926 5928 5930 5931 5933 5934 5936 5938 5939 5941 5942 5943 5944 5945 5946 5947 5948 5948 5949 5949 5950 5950 5950 5950 5949 5949 5949 5948 5948 5948 5948 5948 5948 5948 5947
5790 5792 5794 5799 5803 5807 5811 5814 5816 5818 5819 5822 5825 5827 5830 5836 5840 5842 5843 5845 5847 5848 5849 5852 5854 5856 5858 5862 5865 5867 5869 5871 5872 5875 5877 5879 5880 5882 5884 5885 5886 5888 5889 5891 5893 5895 5897 5899 5902 5904 5905 5908 5910 5912 5914 5916 5918 5919 5920 5921 5922 5924 5925 5927 5929 5930 5932 5933 5935 5937 5938 5940 5941 5943 5944 5944 5945 5946 5946 5947 5948 5948 5948 5949 5949 5949 5949 5948 5948 5948 5947 5947 5947 5947 5947 5947 5947
5787 5788 5790 5795 5799 5802 5805 5807 5810 5814 5816 5819 5823 5826 5830 5835 5837 5838 5840 5842 5844 5846 5847 5849 5852 5854 5856 5859 5862 5864 5866 5868 5870 5872 5874 5876 5878 5880 5881 5883 5884 5886 5888 5890 5892 5894 5896 5898 5900 5902 5904 5907 5908 5910 5912 5915 5917 5918 5919 5920 5921 5923 5924 5926 5927 5929 5930 5932 5934 5936 5937 5939 5940 5941 5942 5943 5944 5945 5945 5946 5946 5947 5947 5947 5947 5947 5947 5947 5947 5947 5947 5946 5946 5946 5946 5946 5946